DW7918 Weather Reports


Display with metric or nautical units.
time (UTC)temp
F
wind
direction
speed
MPH
gust
MPH
rain 1hr
in
rain 24hr
in
rain mn
in
humidity
%
barometer
mb
20260508170203 61 309 5.0 11.0 0.00 0.00 0.00 35 1010.3
20260508170003 61 303 4.0 11.0 0.00 0.00 0.00 36 1010.3
20260508165803 62 300 4.0 9.0 0.00 0.00 0.00 38 1010.3
20260508165603 61 301 3.0 9.0 0.00 0.00 0.00 39 1010.4
20260508165403 61 302 3.0 8.0 0.00 0.00 0.00 41 1010.5
20260508165203 60 304 3.0 11.0 0.00 0.00 0.00 41 1010.5
20260508165004 60 307 3.0 11.0 0.00 0.00 0.00 39 1010.6
20260508164803 60 312 4.0 11.0 0.00 0.00 0.00 38 1010.6
20260508164603 60 322 4.0 11.0 0.00 0.00 0.00 39 1010.7
20260508164403 60 335 4.0 11.0 0.00 0.00 0.00 39 1010.8
20260508164203 60 352 3.0 9.0 0.00 0.00 0.00 40 1010.8
20260508164003 60 12 3.0 7.0 0.00 0.00 0.00 43 1010.8
20260508163803 60 357 3.0 8.0 0.00 0.00 0.00 40 1010.8
20260508163603 60 346 3.0 8.0 0.00 0.00 0.00 41 1010.8
20260508163403 60 324 4.0 9.0 0.00 0.00 0.00 44 1010.8
20260508163203 60 325 4.0 9.0 0.00 0.00 0.00 42 1010.8
20260508163003 60 331 4.0 9.0 0.00 0.00 0.00 41 1010.8
20260508162824 60 341 4.0 9.0 0.00 0.00 0.00 42 1010.8
20260508162603 60 340 4.0 9.0 0.00 0.00 0.00 41 1010.8
20260508162403 59 354 3.0 9.0 0.00 0.00 0.00 45 1010.9
20260508162203 59 353 3.0 9.0 0.00 0.00 0.00 41 1010.9
20260508162003 59 342 3.0 9.0 0.00 0.00 0.00 41 1010.9
20260508161803 59 331 3.0 9.0 0.00 0.00 0.00 39 1010.9
20260508161603 59 331 3.0 7.0 0.00 0.00 0.00 40 1010.8
20260508161403 59 339 3.0 7.0 0.00 0.00 0.00 39 1010.8
20260508161203 59 341 3.0 7.0 0.00 0.00 0.00 41 1010.8
20260508161003 59 343 2.0 7.0 0.00 0.00 0.00 45 1010.9
20260508160803 58 335 2.0 6.0 0.00 0.00 0.00 45 1010.9
20260508160603 58 312 2.0 7.0 0.00 0.00 0.00 42 1010.9
20260508160403 58 306 3.0 7.0 0.00 0.00 0.00 44 1010.9
20260508160203 58 303 3.0 7.0 0.00 0.00 0.00 43 1010.9
20260508160003 58 303 3.0 7.0 0.00 0.00 0.00 43 1010.9
20260508155803 58 307 3.0 7.0 0.00 0.00 0.00 44 1010.9
20260508155603 58 310 2.0 6.0 0.00 0.00 0.00 47 1010.9
20260508155403 58 312 2.0 6.0 0.00 0.00 0.00 43 1010.9
20260508155203 58 308 2.0 6.0 0.00 0.00 0.00 47 1010.9
20260508155024 58 47 2.0 6.0 0.00 0.00 0.00 44 1010.9
20260508154803 57 136 1.0 5.0 0.00 0.00 0.00 46 1010.8
20260508154603 57 353 2.0 6.0 0.00 0.00 0.00 43 1010.9
20260508154403 57 336 2.0 6.0 0.00 0.00 0.00 42 1010.9
20260508154203 57 336 2.0 6.0 0.00 0.00 0.00 44 1010.8
20260508154003 57 330 2.0 6.0 0.00 0.00 0.00 44 1010.9
20260508153803 57 328 2.0 6.0 0.00 0.00 0.00 45 1010.9
20260508153603 57 327 1.0 6.0 0.00 0.00 0.00 48 1010.9
20260508153403 57 309 1.0 4.0 0.00 0.00 0.00 49 1011.0
20260508153203 57 289 1.0 4.0 0.00 0.00 0.00 48 1011.0
20260508153003 57 284 1.0 4.0 0.00 0.00 0.00 50 1011.0
20260508152803 57 279 1.0 4.0 0.00 0.00 0.00 48 1011.0
20260508152603 57 270 1.0 4.0 0.00 0.00 0.00 48 1011.0
20260508152403 57 271 1.0 4.0 0.00 0.00 0.00 51 1011.0
20260508152203 57 278 1.0 4.0 0.00 0.00 0.00 51 1011.1
20260508152003 57 275 1.0 4.0 0.00 0.00 0.00 52 1011.1
20260508151824 56 271 1.0 4.0 0.00 0.00 0.00 53 1011.1
20260508151603 56 223 1.0 4.0 0.00 0.00 0.00 53 1011.1
20260508151403 56 176 1.0 4.0 0.00 0.00 0.00 55 1011.0
20260508151203 56 164 1.0 6.0 0.00 0.00 0.00 53 1011.0
20260508151003 55 169 1.0 6.0 0.00 0.00 0.00 54 1011.0
20260508150824 55 170 1.0 6.0 0.00 0.00 0.00 55 1011.1
20260508150624 55 177 1.0 6.0 0.00 0.00 0.00 54 1011.0
20260508150403 55 183 1.0 6.0 0.00 0.00 0.00 55 1011.0
20260508150203 55 196 1.0 5.0 0.00 0.00 0.00 56 1011.0
20260508150004 55 195 1.0 3.0 0.00 0.00 0.00 55 1011.1
20260508145803 55 191 1.0 4.0 0.00 0.00 0.00 55 1011.2
20260508145624 55 189 1.0 4.0 0.00 0.00 0.00 55 1011.2
20260508145403 55 185 0.0 4.0 0.00 0.00 0.00 55 1011.2
20260508145203 55 181 0.0 4.0 0.00 0.00 0.00 57 1011.3
20260508145003 54 184 0.0 4.0 0.00 0.00 0.00 56 1011.3
20260508144824 54 187 0.0 4.0 0.00 0.00 0.00 58 1011.4
20260508144603 54 193 1.0 3.0 0.00 0.00 0.00 58 1011.4
20260508144403 54 197 1.0 3.0 0.00 0.00 0.00 59 1011.3
20260508144203 54 227 1.0 3.0 0.00 0.00 0.00 59 1011.4
20260508144003 53 243 1.0 3.0 0.00 0.00 0.00 59 1011.4
20260508143824 53 278 1.0 4.0 0.00 0.00 0.00 59 1011.4
20260508143603 53 298 1.0 4.0 0.00 0.00 0.00 60 1011.5
20260508143403 53 302 1.0 4.0 0.00 0.00 0.00 60 1011.5
20260508143203 53 304 1.0 4.0 0.00 0.00 0.00 61 1011.5
20260508143003 53 305 1.0 4.0 0.00 0.00 0.00 61 1011.5
20260508142803 53 307 1.0 4.0 0.00 0.00 0.00 60 1011.5
20260508142603 52 307 0.0 3.0 0.00 0.00 0.00 61 1011.6
20260508142403 52 308 0.0 2.0 0.00 0.00 0.00 61 1011.7
20260508142224 52 0 0.0 0.0 0.00 0.00 0.00 61 1011.6
20260508142003 52 0 0.0 0.0 0.00 0.00 0.00 61 1011.6
20260508141803 52 0 0.0 0.0 0.00 0.00 0.00 61 1011.6
20260508141624 52 0 0.0 0.0 0.00 0.00 0.00 61 1011.6
20260508141403 51 0 0.0 1.0 0.00 0.00 0.00 62 1011.7
20260508141203 51 0 0.0 1.0 0.00 0.00 0.00 63 1011.7
20260508141024 51 0 0.0 1.0 0.00 0.00 0.00 64 1011.7
20260508140803 51 0 0.0 1.0 0.00 0.00 0.00 63 1011.8
20260508140603 51 0 0.0 1.0 0.00 0.00 0.00 63 1011.8
20260508140403 50 308 0.0 1.0 0.00 0.00 0.00 63 1011.7
20260508140203 50 310 1.0 3.0 0.00 0.00 0.00 63 1011.6
20260508140003 50 312 1.0 3.0 0.00 0.00 0.00 63 1011.7
20260508135803 50 312 1.0 3.0 0.00 0.00 0.00 63 1011.7
20260508135624 50 312 1.0 3.0 0.00 0.00 0.00 63 1011.6
20260508135403 50 312 1.0 3.0 0.00 0.00 0.00 63 1011.7
20260508135203 50 313 1.0 2.0 0.00 0.00 0.00 64 1011.7
20260508135003 50 311 1.0 3.0 0.00 0.00 0.00 64 1011.6
20260508134803 50 311 1.0 3.0 0.00 0.00 0.00 64 1011.6
20260508134603 50 311 0.0 3.0 0.00 0.00 0.00 65 1011.6
20260508134424 49 311 0.0 3.0 0.00 0.00 0.00 65 1011.7
20260508134203 49 312 0.0 3.0 0.00 0.00 0.00 65 1011.7
20260508134024 49 316 0.0 2.0 0.00 0.00 0.00 66 1011.7
20260508133803 49 0 0.0 0.0 0.00 0.00 0.00 66 1011.7
20260508133603 49 318 0.0 1.0 0.00 0.00 0.00 66 1011.8
20260508133403 49 318 0.0 1.0 0.00 0.00 0.00 67 1011.7
20260508133203 49 319 0.0 2.0 0.00 0.00 0.00 67 1011.7
20260508133003 49 319 0.0 2.0 0.00 0.00 0.00 67 1011.7
20260508132803 49 319 0.0 2.0 0.00 0.00 0.00 67 1011.7
20260508132603 48 319 0.0 2.0 0.00 0.00 0.00 67 1011.7
20260508132403 48 320 1.0 3.0 0.00 0.00 0.00 68 1011.8
20260508132224 48 320 0.0 3.0 0.00 0.00 0.00 68 1011.8
20260508132003 48 320 1.0 3.0 0.00 0.00 0.00 68 1011.9
20260508131803 48 320 1.0 3.0 0.00 0.00 0.00 68 1011.9
20260508131624 48 316 1.0 4.0 0.00 0.00 0.00 68 1011.8
20260508131403 48 314 1.0 4.0 0.00 0.00 0.00 68 1011.8
20260508131203 48 310 1.0 4.0 0.00 0.00 0.00 68 1011.8
20260508131003 48 308 1.0 4.0 0.00 0.00 0.00 68 1011.8
20260508130824 48 308 1.0 4.0 0.00 0.00 0.00 69 1011.8
20260508130603 47 325 1.0 4.0 0.00 0.00 0.00 69 1011.8
20260508130403 47 336 1.0 4.0 0.00 0.00 0.00 69 1011.9
20260508130203 47 345 1.0 4.0 0.00 0.00 0.00 70 1011.9
20260508130003 47 357 1.0 3.0 0.00 0.00 0.00 71 1011.9
20260508125803 47 349 1.0 4.0 0.00 0.00 0.00 71 1011.9
20260508125603 47 333 1.0 5.0 0.00 0.00 0.00 71 1011.9
20260508125403 47 324 1.0 5.0 0.00 0.00 0.00 71 1012.0
20260508125203 47 321 2.0 5.0 0.00 0.00 0.00 72 1012.0
20260508125003 47 326 2.0 6.0 0.00 0.00 0.00 71 1012.1
20260508124824 47 325 2.0 6.0 0.00 0.00 0.00 73 1012.0
20260508124624 46 320 2.0 6.0 0.00 0.00 0.00 73 1012.1
20260508124403 46 312 2.0 6.0 0.00 0.00 0.00 74 1012.1
20260508124203 46 318 2.0 6.0 0.00 0.00 0.00 74 1012.0
20260508124024 46 310 1.0 3.0 0.00 0.00 0.00 74 1012.0
20260508123803 46 310 1.0 3.0 0.00 0.00 0.00 74 1011.9
20260508123603 46 314 1.0 3.0 0.00 0.00 0.00 74 1011.9
20260508123424 45 348 0.0 3.0 0.00 0.00 0.00 74 1011.9
20260508123203 45 0 0.0 0.0 0.00 0.00 0.00 74 1011.9
20260508123003 45 0 0.0 0.0 0.00 0.00 0.00 73 1011.8
20260508122803 45 0 0.0 0.0 0.00 0.00 0.00 74 1011.9
20260508122603 45 0 0.0 0.0 0.00 0.00 0.00 74 1011.9
20260508122403 44 0 0.0 0.0 0.00 0.00 0.00 74 1011.9
20260508122203 44 0 0.0 0.0 0.00 0.00 0.00 74 1011.9
20260508122024 44 0 0.0 0.0 0.00 0.00 0.00 74 1011.9
20260508121803 44 0 0.0 0.0 0.00 0.00 0.00 74 1011.8
20260508121603 44 0 0.0 0.0 0.00 0.00 0.00 75 1011.8
20260508121424 44 0 0.0 0.0 0.00 0.00 0.00 75 1011.8
20260508121224 44 0 0.0 0.0 0.00 0.00 0.00 75 1011.8
20260508121003 44 0 0.0 0.0 0.00 0.00 0.00 76 1011.9
20260508120803 43 0 0.0 0.0 0.00 0.00 0.00 76 1011.8
20260508120624 43 0 0.0 0.0 0.00 0.00 0.00 76 1011.8
20260508120403 43 0 0.0 0.0 0.00 0.00 0.00 76 1011.8
20260508120203 43 0 0.0 0.0 0.00 0.00 0.00 77 1011.7
20260508120003 43 0 0.0 0.0 0.00 0.00 0.00 77 1011.7
20260508115803 42 0 0.0 0.0 0.00 0.00 0.00 78 1011.7
20260508115603 42 0 0.0 0.0 0.00 0.00 0.00 78 1011.7
20260508115424 42 0 0.0 0.0 0.00 0.00 0.00 77 1011.7
20260508115203 42 0 0.0 0.0 0.00 0.00 0.00 77 1011.7
20260508115003 41 0 0.0 0.0 0.00 0.00 0.00 77 1011.7
20260508114803 41 0 0.0 0.0 0.00 0.00 0.00 77 1011.7
20260508114603 41 0 0.0 0.0 0.00 0.00 0.00 78 1011.5
20260508114403 41 0 0.0 0.0 0.00 0.00 0.00 78 1011.5
20260508114224 40 0 0.0 0.0 0.00 0.00 0.00 78 1011.5
20260508114003 40 0 0.0 0.0 0.00 0.00 0.00 77 1011.4
20260508113803 40 0 0.0 0.0 0.00 0.00 0.00 76 1011.4
20260508113603 40 0 0.0 0.0 0.00 0.00 0.00 76 1011.4
20260508113403 39 0 0.0 0.0 0.00 0.00 0.00 76 1011.4
20260508113203 39 0 0.0 0.0 0.00 0.00 0.00 76 1011.3
20260508113004 39 0 0.0 0.0 0.00 0.00 0.00 76 1011.3
20260508112803 39 0 0.0 0.0 0.00 0.00 0.00 75 1011.3
20260508112624 38 0 0.0 0.0 0.00 0.00 0.00 74 1011.2
20260508112403 38 0 0.0 0.0 0.00 0.00 0.00 73 1011.2
20260508112203 38 0 0.0 0.0 0.00 0.00 0.00 73 1011.2
20260508112003 38 0 0.0 0.0 0.00 0.00 0.00 73 1011.2
20260508111803 38 0 0.0 0.0 0.00 0.00 0.00 73 1011.3
20260508111603 38 0 0.0 0.0 0.00 0.00 0.00 73 1011.2
20260508111403 38 0 0.0 0.0 0.00 0.00 0.00 73 1011.1
20260508111203 38 0 0.0 0.0 0.00 0.00 0.00 73 1011.2
20260508111003 38 0 0.0 0.0 0.00 0.00 0.00 73 1011.1
20260508110803 37 0 0.0 0.0 0.00 0.00 0.00 72 1011.1
20260508110603 37 0 0.0 0.0 0.00 0.00 0.00 72 1011.1
20260508110403 37 0 0.0 0.0 0.00 0.00 0.00 72 1011.2
20260508110203 37 0 0.0 0.0 0.00 0.00 0.00 72 1011.1
20260508110003 37 0 0.0 0.0 0.00 0.00 0.00 72 1011.1
20260508105803 37 0 0.0 0.0 0.00 0.00 0.00 72 1011.1
20260508105603 37 0 0.0 0.0 0.00 0.00 0.00 72 1011.1
20260508105403 37 0 0.0 0.0 0.00 0.00 0.00 72 1011.2
20260508105203 37 0 0.0 0.0 0.00 0.00 0.00 72 1011.1
20260508105003 37 0 0.0 0.0 0.00 0.00 0.00 72 1011.1
20260508104803 37 0 0.0 0.0 0.00 0.00 0.00 72 1011.1
20260508104603 37 0 0.0 0.0 0.00 0.00 0.00 72 1011.1
20260508104403 37 0 0.0 0.0 0.00 0.00 0.00 72 1011.1
20260508104224 37 0 0.0 0.0 0.00 0.00 0.00 71 1011.1
20260508104003 37 0 0.0 0.0 0.00 0.00 0.00 71 1011.1
20260508103803 37 0 0.0 0.0 0.00 0.00 0.00 71 1011.0
20260508103603 37 0 0.0 0.0 0.00 0.00 0.00 71 1011.1
20260508103403 37 0 0.0 0.0 0.00 0.00 0.00 71 1011.1
20260508103203 37 0 0.0 0.0 0.00 0.00 0.00 71 1011.1
20260508103024 37 0 0.0 0.0 0.00 0.00 0.00 71 1011.1
20260508102803 37 0 0.0 0.0 0.00 0.00 0.00 71 1011.2
20260508102624 37 0 0.0 0.0 0.00 0.00 0.00 71 1011.1
20260508102403 37 0 0.0 0.0 0.00 0.00 0.00 72 1011.0
20260508102203 37 0 0.0 0.0 0.00 0.00 0.00 72 1011.0
20260508102003 37 0 0.0 0.0 0.00 0.00 0.00 72 1011.0
20260508101803 37 0 0.0 0.0 0.00 0.00 0.00 72 1011.0
20260508101603 37 0 0.0 0.0 0.00 0.00 0.00 72 1010.9
20260508101424 37 0 0.0 0.0 0.00 0.00 0.00 72 1010.9
20260508101203 37 0 0.0 0.0 0.00 0.00 0.00 72 1010.9
20260508101003 37 0 0.0 0.0 0.00 0.00 0.00 72 1011.0
20260508100803 37 0 0.0 0.0 0.00 0.00 0.00 72 1010.9
20260508100603 37 0 0.0 0.0 0.00 0.00 0.00 72 1010.9
20260508100403 37 0 0.0 0.0 0.00 0.00 0.00 72 1011.0
20260508100203 37 0 0.0 0.0 0.00 0.00 0.00 72 1011.0
20260508100003 37 0 0.0 0.0 0.00 0.00 0.00 72 1011.0
20260508095803 37 0 0.0 0.0 0.00 0.00 0.00 72 1011.1
20260508095624 37 0 0.0 0.0 0.00 0.00 0.00 72 1011.1
20260508095424 37 0 0.0 0.0 0.00 0.00 0.00 71 1011.1
20260508095203 37 0 0.0 0.0 0.00 0.00 0.00 71 1011.0
20260508095003 37 0 0.0 0.0 0.00 0.00 0.00 71 1011.1
20260508094824 37 0 0.0 0.0 0.00 0.00 0.00 71 1011.0
20260508094603 37 0 0.0 0.0 0.00 0.00 0.00 71 1011.1
20260508094403 37 0 0.0 0.0 0.00 0.00 0.00 71 1011.1
20260508094203 37 0 0.0 0.0 0.00 0.00 0.00 70 1011.1
20260508094003 37 0 0.0 0.0 0.00 0.00 0.00 70 1011.0
20260508093803 37 0 0.0 0.0 0.00 0.00 0.00 70 1011.0
20260508093603 38 0 0.0 0.0 0.00 0.00 0.00 70 1011.1
20260508093403 38 0 0.0 0.0 0.00 0.00 0.00 70 1011.0
20260508093203 38 0 0.0 0.0 0.00 0.00 0.00 70 1011.1
20260508093003 38 0 0.0 0.0 0.00 0.00 0.00 70 1011.0
20260508092803 38 0 0.0 0.0 0.00 0.00 0.00 70 1011.1
20260508092603 38 0 0.0 0.0 0.00 0.00 0.00 70 1011.1
20260508092403 38 0 0.0 0.0 0.00 0.00 0.00 70 1011.1
20260508092203 38 0 0.0 0.0 0.00 0.00 0.00 70 1011.1
20260508092003 38 0 0.0 0.0 0.00 0.00 0.00 70 1011.1
20260508091803 38 0 0.0 0.0 0.00 0.00 0.00 70 1011.1
20260508091603 38 0 0.0 0.0 0.00 0.00 0.00 70 1011.1
20260508091403 38 0 0.0 0.0 0.00 0.00 0.00 70 1011.2
20260508091203 38 0 0.0 0.0 0.00 0.00 0.00 70 1011.1
20260508091003 38 0 0.0 0.0 0.00 0.00 0.00 70 1011.2
20260508090803 38 0 0.0 0.0 0.00 0.00 0.00 70 1011.1
20260508090603 38 0 0.0 0.0 0.00 0.00 0.00 70 1011.2
20260508090403 38 0 0.0 0.0 0.00 0.00 0.00 70 1011.2
20260508090203 39 0 0.0 0.0 0.00 0.00 0.00 70 1011.2
20260508090003 39 0 0.0 0.0 0.00 0.00 0.00 70 1011.2
20260508085803 39 0 0.0 0.0 0.00 0.00 0.00 70 1011.2
20260508085624 39 0 0.0 0.0 0.00 0.00 0.00 70 1011.2
20260508085403 39 0 0.0 0.0 0.00 0.00 0.00 71 1011.2
20260508085224 39 0 0.0 0.0 0.00 0.00 0.00 71 1011.2
20260508085003 39 0 0.0 0.0 0.00 0.00 0.00 71 1011.2
20260508084803 39 0 0.0 0.0 0.00 0.00 0.00 71 1011.1
20260508084603 39 0 0.0 0.0 0.00 0.00 0.00 71 1011.1
20260508084403 39 0 0.0 0.0 0.00 0.00 0.00 71 1011.1
20260508084203 39 0 0.0 0.0 0.00 0.00 0.00 71 1011.1
20260508084003 39 0 0.0 0.0 0.00 0.00 0.00 71 1011.1
20260508083803 39 0 0.0 0.0 0.00 0.00 0.00 70 1011.1
20260508083624 39 0 0.0 0.0 0.00 0.00 0.00 70 1011.1
20260508083403 39 0 0.0 0.0 0.00 0.00 0.00 70 1011.1
20260508083203 39 0 0.0 0.0 0.00 0.00 0.00 69 1011.1
20260508083024 39 0 0.0 0.0 0.00 0.00 0.00 69 1011.1
20260508082803 39 0 0.0 0.0 0.00 0.00 0.00 70 1011.2
20260508082603 39 0 0.0 0.0 0.00 0.00 0.00 70 1011.1
20260508082424 39 0 0.0 0.0 0.00 0.00 0.00 70 1011.1
20260508082203 39 0 0.0 0.0 0.00 0.00 0.00 70 1011.0
20260508082003 39 0 0.0 0.0 0.00 0.00 0.00 70 1011.0
20260508081824 39 0 0.0 0.0 0.00 0.00 0.00 70 1011.0
20260508081403 40 0 0.0 0.0 0.00 0.00 0.00 70 1011.1
20260508081203 40 0 0.0 0.0 0.00 0.00 0.00 70 1011.1
20260508081003 40 0 0.0 0.0 0.00 0.00 0.00 70 1011.1
20260508080803 40 0 0.0 0.0 0.00 0.00 0.00 70 1011.1
20260508080603 40 0 0.0 0.0 0.00 0.00 0.00 70 1011.1
20260508080403 40 0 0.0 0.0 0.00 0.00 0.00 70 1011.1
20260508080203 40 0 0.0 0.0 0.00 0.00 0.00 70 1011.1
20260508080003 40 0 0.0 0.0 0.00 0.00 0.00 70 1011.1
20260508075803 40 0 0.0 0.0 0.00 0.00 0.00 69 1011.1
20260508075603 40 0 0.0 0.0 0.00 0.00 0.00 69 1011.1
20260508075403 40 0 0.0 0.0 0.00 0.00 0.00 69 1011.2
20260508075203 40 0 0.0 0.0 0.00 0.00 0.00 69 1011.2
20260508075003 40 0 0.0 0.0 0.00 0.00 0.00 70 1011.2
20260508074803 40 0 0.0 0.0 0.00 0.00 0.00 70 1011.3
20260508074603 40 0 0.0 0.0 0.00 0.00 0.00 70 1011.3
20260508074403 40 0 0.0 0.0 0.00 0.00 0.00 70 1011.3
20260508074203 40 0 0.0 0.0 0.00 0.00 0.00 70 1011.3
20260508074003 40 0 0.0 0.0 0.00 0.00 0.00 70 1011.3
20260508073824 40 0 0.0 0.0 0.00 0.00 0.00 70 1011.4
20260508073624 40 0 0.0 0.0 0.00 0.00 0.00 70 1011.3
20260508073403 40 0 0.0 0.0 0.00 0.00 0.00 70 1011.4
20260508073203 40 0 0.0 0.0 0.00 0.00 0.00 70 1011.4
20260508073003 41 0 0.0 0.0 0.00 0.00 0.00 70 1011.4
20260508072824 41 0 0.0 0.0 0.00 0.00 0.00 70 1011.4
20260508072603 41 0 0.0 0.0 0.00 0.00 0.00 70 1011.5
20260508072403 41 0 0.0 0.0 0.00 0.00 0.00 70 1011.5
20260508072224 41 0 0.0 0.0 0.00 0.00 0.00 70 1011.5
20260508072024 41 0 0.0 0.0 0.00 0.00 0.00 70 1011.4
20260508071803 41 0 0.0 0.0 0.00 0.00 0.00 70 1011.4
20260508071603 41 0 0.0 0.0 0.00 0.00 0.00 70 1011.5
20260508071403 41 0 0.0 0.0 0.00 0.00 0.00 70 1011.5
20260508071203 41 0 0.0 0.0 0.00 0.00 0.00 70 1011.5
20260508071003 41 0 0.0 0.0 0.00 0.00 0.00 70 1011.5
20260508070824 41 0 0.0 0.0 0.00 0.00 0.00 70 1011.6
20260508070603 41 0 0.0 0.0 0.00 0.00 0.00 70 1011.6
20260508070403 41 0 0.0 0.0 0.00 0.00 0.00 70 1011.6
20260508070203 41 0 0.0 0.0 0.00 0.00 0.00 70 1011.6
20260508070003 41 0 0.0 0.0 0.00 0.00 0.00 70 1011.6
20260508065803 41 0 0.0 0.0 0.00 0.00 0.00 70 1011.6
20260508065603 41 0 0.0 0.0 0.00 0.00 0.00 70 1011.6
20260508065403 41 0 0.0 0.0 0.00 0.00 0.00 70 1011.7
20260508065203 41 0 0.0 0.0 0.00 0.00 0.00 69 1011.7
20260508065003 41 0 0.0 0.0 0.00 0.00 0.00 69 1011.7
20260508064803 41 0 0.0 0.0 0.00 0.00 0.00 69 1011.7
20260508064604 42 0 0.0 0.0 0.00 0.00 0.00 69 1011.7
20260508064404 42 0 0.0 0.0 0.00 0.00 0.00 69 1011.7
20260508064203 42 0 0.0 0.0 0.00 0.00 0.00 69 1011.7
20260508064003 42 0 0.0 0.0 0.00 0.00 0.00 69 1011.7
20260508063803 42 0 0.0 0.0 0.00 0.00 0.00 69 1011.7
20260508063603 42 0 0.0 0.0 0.00 0.00 0.00 69 1011.8
20260508063424 42 0 0.0 0.0 0.00 0.00 0.00 69 1011.7
20260508063203 42 0 0.0 0.0 0.00 0.00 0.00 68 1011.7
20260508063003 42 0 0.0 0.0 0.00 0.00 0.00 68 1011.7
20260508062803 42 0 0.0 0.0 0.00 0.00 0.00 68 1011.7
20260508062603 42 0 0.0 0.0 0.00 0.00 0.00 68 1011.7
20260508062403 42 0 0.0 0.0 0.00 0.00 0.00 67 1011.7
20260508062224 42 0 0.0 0.0 0.00 0.00 0.00 67 1011.7
20260508062003 42 0 0.0 0.0 0.00 0.00 0.00 67 1011.7
20260508061803 42 0 0.0 0.0 0.00 0.00 0.00 67 1011.6
20260508061603 42 0 0.0 0.0 0.00 0.00 0.00 67 1011.6
20260508061403 42 0 0.0 0.0 0.00 0.00 0.00 66 1011.7
20260508061203 42 0 0.0 0.0 0.00 0.00 0.00 66 1011.7
20260508061003 42 0 0.0 0.0 0.00 0.00 0.00 66 1011.7
20260508060803 42 0 0.0 0.0 0.00 0.00 0.00 66 1011.8
20260508060603 42 0 0.0 0.0 0.00 0.00 0.00 66 1011.7
20260508060424 42 0 0.0 0.0 0.00 0.00 0.00 66 1011.8
20260508060224 42 0 0.0 0.0 0.00 0.00 0.00 66 1011.8
20260508060003 42 0 0.0 0.0 0.00 0.00 0.00 65 1011.8
20260508055803 42 0 0.0 0.0 0.00 0.00 0.00 65 1011.8
20260508055603 43 0 0.0 0.0 0.00 0.00 0.00 65 1011.8
20260508055403 43 0 0.0 0.0 0.00 0.00 0.00 65 1011.7
20260508055203 43 0 0.0 0.0 0.00 0.00 0.00 65 1011.8
20260508055003 43 0 0.0 0.0 0.00 0.00 0.00 65 1011.8
20260508054824 43 0 0.0 0.0 0.00 0.00 0.00 65 1011.8
20260508054603 43 0 0.0 0.0 0.00 0.00 0.00 65 1011.7
20260508054403 43 0 0.0 0.0 0.00 0.00 0.00 65 1011.8
20260508054203 43 0 0.0 0.0 0.00 0.00 0.00 65 1011.7
20260508054003 43 0 0.0 0.0 0.00 0.00 0.00 65 1011.7
20260508053803 43 0 0.0 0.0 0.00 0.00 0.00 65 1011.7
20260508053603 43 0 0.0 0.0 0.00 0.00 0.00 65 1011.7
20260508053403 44 0 0.0 0.0 0.00 0.00 0.00 64 1011.7
20260508053203 44 0 0.0 0.0 0.00 0.00 0.00 65 1011.6
20260508053003 44 0 0.0 0.0 0.00 0.00 0.00 65 1011.6
20260508052803 44 0 0.0 0.0 0.00 0.00 0.00 65 1011.6
20260508052603 44 0 0.0 0.0 0.00 0.00 0.00 65 1011.6
20260508052403 44 0 0.0 0.0 0.00 0.00 0.00 65 1011.6
20260508052203 44 0 0.0 0.0 0.00 0.00 0.00 65 1011.6
20260508052003 44 0 0.0 0.0 0.00 0.00 0.00 65 1011.6
20260508051803 44 0 0.0 0.0 0.00 0.00 0.00 66 1011.6
20260508051603 44 0 0.0 0.0 0.00 0.00 0.00 65 1011.6
20260508051403 44 0 0.0 0.0 0.00 0.00 0.00 65 1011.6
20260508051224 44 0 0.0 0.0 0.00 0.00 0.00 65 1011.5
20260508051003 44 0 0.0 0.0 0.00 0.00 0.00 65 1011.6
20260508050803 44 0 0.0 0.0 0.00 0.00 0.00 65 1011.6
20260508050603 44 0 0.0 0.0 0.00 0.00 0.00 65 1011.6
20260508050403 44 0 0.0 0.0 0.00 0.00 0.00 65 1011.6
20260508050203 44 0 0.0 0.0 0.00 0.00 0.00 65 1011.6
20260508050003 44 0 0.0 0.0 0.00 0.00 0.00 65 1011.5
20260508045803 44 0 0.0 0.0 0.00 0.00 0.00 65 1011.6
20260508045603 44 0 0.0 0.0 0.00 0.00 0.00 65 1011.6
20260508045424 44 0 0.0 0.0 0.00 0.00 0.00 65 1011.5
20260508045203 44 0 0.0 0.0 0.00 0.00 0.00 65 1011.5
20260508045003 44 0 0.0 0.0 0.00 0.00 0.00 65 1011.5
20260508044803 44 0 0.0 0.0 0.00 0.00 0.00 65 1011.6
20260508044603 44 0 0.0 0.0 0.00 0.00 0.00 65 1011.6
20260508044403 44 0 0.0 0.0 0.00 0.00 0.00 65 1011.6
20260508044203 44 0 0.0 0.0 0.00 0.00 0.00 64 1011.5
20260508044003 44 0 0.0 0.0 0.00 0.00 0.00 64 1011.5
20260508043803 44 0 0.0 0.0 0.00 0.00 0.00 65 1011.5
20260508043603 44 0 0.0 0.0 0.00 0.00 0.00 65 1011.5
20260508043403 44 0 0.0 0.0 0.00 0.00 0.00 65 1011.5
20260508043203 44 0 0.0 0.0 0.00 0.00 0.00 65 1011.5
20260508043003 44 0 0.0 0.0 0.00 0.00 0.00 65 1011.5
20260508042803 44 0 0.0 0.0 0.00 0.00 0.00 65 1011.5
20260508042603 44 0 0.0 0.0 0.00 0.00 0.00 65 1011.5
20260508042403 44 0 0.0 0.0 0.00 0.00 0.00 65 1011.5
20260508042224 44 0 0.0 0.0 0.00 0.00 0.00 64 1011.5
20260508042003 44 0 0.0 0.0 0.00 0.00 0.00 64 1011.4
20260508041803 44 0 0.0 0.0 0.00 0.00 0.00 64 1011.5
20260508041603 45 0 0.0 0.0 0.00 0.00 0.00 64 1011.5
20260508041403 45 0 0.0 0.0 0.00 0.00 0.00 64 1011.5
20260508041203 45 0 0.0 0.0 0.00 0.00 0.00 64 1011.5
20260508041003 45 0 0.0 0.0 0.00 0.00 0.00 64 1011.4
20260508040803 45 0 0.0 0.0 0.00 0.00 0.00 64 1011.4
20260508040603 45 0 0.0 0.0 0.00 0.00 0.00 64 1011.4
20260508040403 45 0 0.0 0.0 0.00 0.00 0.00 64 1011.4
20260508040203 45 0 0.0 0.0 0.00 0.00 0.00 64 1011.4
20260508040003 45 0 0.0 0.0 0.00 0.00 0.00 64 1011.5
20260508035803 45 0 0.0 0.0 0.00 0.00 0.00 64 1011.5
20260508035624 45 0 0.0 0.0 0.00 0.00 0.00 64 1011.5
20260508035403 45 0 0.0 0.0 0.00 0.00 0.00 64 1011.4
20260508035203 45 0 0.0 0.0 0.00 0.00 0.00 64 1011.4
20260508035003 45 0 0.0 0.0 0.00 0.00 0.00 64 1011.4
20260508034824 45 0 0.0 0.0 0.00 0.00 0.00 64 1011.4
20260508034603 45 0 0.0 0.0 0.00 0.00 0.00 64 1011.4
20260508034403 45 0 0.0 0.0 0.00 0.00 0.00 64 1011.3
20260508034203 45 0 0.0 0.0 0.00 0.00 0.00 64 1011.3
20260508034003 45 0 0.0 0.0 0.00 0.00 0.00 64 1011.4
20260508033803 45 0 0.0 0.0 0.00 0.00 0.00 64 1011.4
20260508033603 45 0 0.0 0.0 0.00 0.00 0.00 64 1011.4
20260508033403 45 0 0.0 0.0 0.00 0.00 0.00 64 1011.4
20260508033203 45 0 0.0 0.0 0.00 0.00 0.00 63 1011.4
20260508033003 45 0 0.0 0.0 0.00 0.00 0.00 63 1011.4
20260508032803 45 0 0.0 0.0 0.00 0.00 0.00 64 1011.4
20260508032603 45 0 0.0 0.0 0.00 0.00 0.00 64 1011.4
20260508032403 45 0 0.0 0.0 0.00 0.00 0.00 63 1011.4
20260508032203 45 0 0.0 0.0 0.00 0.00 0.00 63 1011.4
20260508032024 45 0 0.0 0.0 0.00 0.00 0.00 63 1011.4
20260508031803 46 0 0.0 0.0 0.00 0.00 0.00 63 1011.4
20260508031603 46 0 0.0 0.0 0.00 0.00 0.00 63 1011.4
20260508031403 46 0 0.0 0.0 0.00 0.00 0.00 63 1011.4
20260508031203 46 0 0.0 0.0 0.00 0.00 0.00 63 1011.4
20260508031003 46 0 0.0 0.0 0.00 0.00 0.00 63 1011.4
20260508030803 46 0 0.0 0.0 0.00 0.00 0.00 63 1011.5
20260508030603 46 0 0.0 0.0 0.00 0.00 0.00 62 1011.5
20260508030403 46 0 0.0 0.0 0.00 0.00 0.00 62 1011.5
20260508030203 46 0 0.0 0.0 0.00 0.00 0.00 62 1011.5
20260508030004 46 0 0.0 0.0 0.00 0.00 0.00 62 1011.5
20260508025824 46 0 0.0 0.0 0.00 0.00 0.00 62 1011.5
20260508025603 46 0 0.0 0.0 0.00 0.00 0.00 62 1011.5
20260508025403 46 0 0.0 0.0 0.00 0.00 0.00 62 1011.5
20260508025203 46 0 0.0 0.0 0.00 0.00 0.00 62 1011.5
20260508025003 46 0 0.0 0.0 0.00 0.00 0.00 62 1011.5
20260508024803 46 0 0.0 0.0 0.00 0.00 0.00 62 1011.5
20260508024603 46 0 0.0 0.0 0.00 0.00 0.00 62 1011.5
20260508024403 46 0 0.0 0.0 0.00 0.00 0.00 62 1011.5
20260508024224 47 0 0.0 0.0 0.00 0.00 0.00 61 1011.5
20260508024003 47 0 0.0 0.0 0.00 0.00 0.00 62 1011.5
20260508023824 47 0 0.0 0.0 0.00 0.00 0.00 62 1011.5
20260508023603 47 0 0.0 0.0 0.00 0.00 0.00 62 1011.5
20260508023403 47 0 0.0 0.0 0.00 0.00 0.00 62 1011.5
20260508023224 47 0 0.0 0.0 0.00 0.00 0.00 62 1011.6
20260508023003 47 295 0.0 1.0 0.00 0.00 0.00 62 1011.5
20260508022803 47 294 0.0 2.0 0.00 0.00 0.00 62 1011.5
20260508022603 47 294 1.0 2.0 0.00 0.00 0.00 61 1011.5
20260508022403 47 293 1.0 2.0 0.00 0.00 0.00 62 1011.5
20260508022203 47 293 1.0 3.0 0.00 0.00 0.00 62 1011.5
20260508022003 47 292 1.0 3.0 0.00 0.00 0.00 62 1011.5
20260508021824 47 291 1.0 3.0 0.00 0.00 0.00 61 1011.5
20260508021603 47 290 2.0 3.0 0.00 0.00 0.00 61 1011.5
20260508021403 47 289 2.0 3.0 0.00 0.00 0.00 61 1011.5
20260508021203 47 289 2.0 3.0 0.00 0.00 0.00 61 1011.5
20260508021003 47 290 2.0 3.0 0.00 0.00 0.00 61 1011.5
20260508020824 47 292 2.0 4.0 0.00 0.00 0.00 61 1011.5
20260508020603 47 294 2.0 4.0 0.00 0.00 0.00 61 1011.5
20260508020403 48 296 3.0 4.0 0.00 0.00 0.00 61 1011.5
20260508020203 48 298 3.0 4.0 0.00 0.00 0.00 61 1011.5
20260508020003 48 299 3.0 5.0 0.00 0.00 0.00 61 1011.5
20260508015824 48 300 3.0 5.0 0.00 0.00 0.00 61 1011.5
20260508015603 48 301 4.0 7.0 0.00 0.00 0.00 61 1011.5
20260508015403 48 303 4.0 7.0 0.00 0.00 0.00 60 1011.5
20260508015203 48 303 4.0 7.0 0.00 0.00 0.00 60 1011.5
20260508015003 49 303 4.0 7.0 0.00 0.00 0.00 60 1011.4
20260508014803 49 302 4.0 7.0 0.00 0.00 0.00 59 1011.4
20260508014603 49 302 4.0 7.0 0.00 0.00 0.00 59 1011.4
20260508014403 49 300 5.0 9.0 0.00 0.00 0.00 59 1011.4
20260508014203 49 300 5.0 9.0 0.00 0.00 0.00 58 1011.4
20260508014003 50 299 6.0 10.0 0.00 0.00 0.00 58 1011.4
20260508013803 50 299 6.0 11.0 0.00 0.00 0.00 57 1011.4
20260508013603 50 299 6.0 11.0 0.00 0.00 0.00 57 1011.4
20260508013403 50 299 6.0 11.0 0.00 0.00 0.00 56 1011.4
20260508013203 50 299 5.0 11.0 0.00 0.00 0.00 56 1011.4
20260508013003 50 300 5.0 11.0 0.00 0.00 0.00 55 1011.3
20260508012824 51 301 4.0 10.0 0.00 0.00 0.00 54 1011.3
20260508012603 51 301 4.0 6.0 0.00 0.00 0.00 53 1011.2
20260508012403 51 301 4.0 6.0 0.00 0.00 0.00 52 1011.1
20260508012203 51 300 4.0 6.0 0.00 0.00 0.00 51 1011.1
20260508012025 52 301 4.0 6.0 0.00 0.00 0.00 50 1011.1
20260508011803 52 300 4.0 6.0 0.00 0.00 0.00 50 1011.0
20260508011603 52 299 4.0 6.0 0.00 0.00 0.00 50 1011.1
20260508011403 52 301 4.0 6.0 0.00 0.00 0.00 50 1011.0
20260508011203 52 303 4.0 6.0 0.00 0.00 0.00 50 1011.1
20260508011003 52 305 4.0 6.0 0.00 0.00 0.00 49 1011.0
20260508010803 52 307 4.0 6.0 0.00 0.00 0.00 49 1010.9
20260508010624 52 309 4.0 7.0 0.00 0.00 0.00 48 1011.0
20260508010403 52 310 5.0 11.0 0.00 0.00 0.00 48 1011.0
20260508010224 53 310 5.0 11.0 0.00 0.00 0.00 47 1011.0
20260508010003 53 308 5.0 11.0 0.00 0.00 0.00 47 1011.0
20260508005824 53 310 5.0 11.0 0.00 0.00 0.00 47 1011.0
20260508005603 53 313 5.0 11.0 0.00 0.00 0.00 47 1011.0
20260508005403 53 319 5.0 11.0 0.00 0.00 0.00 47 1010.9
20260508005203 53 322 5.0 11.0 0.00 0.00 0.00 47 1010.9
20260508005024 53 324 4.0 10.0 0.00 0.00 0.00 47 1010.9
20260508004803 53 326 4.0 8.0 0.00 0.00 0.00 48 1010.9
20260508004603 53 321 4.0 8.0 0.00 0.00 0.00 47 1010.9
20260508004403 53 311 4.0 7.0 0.00 0.00 0.00 47 1010.9
20260508004203 53 305 3.0 7.0 0.00 0.00 0.00 46 1010.9
20260508004003 53 304 3.0 7.0 0.00 0.00 0.00 47 1010.9
20260508003803 53 304 3.0 7.0 0.00 0.00 0.00 46 1010.9
20260508003603 54 306 4.0 7.0 0.00 0.00 0.00 47 1010.9
20260508003403 54 307 4.0 7.0 0.00 0.00 0.00 46 1010.8
20260508003224 54 307 4.0 7.0 0.00 0.00 0.00 46 1010.8
20260508003004 54 308 4.0 7.0 0.00 0.00 0.00 46 1010.8
20260508002803 54 308 4.0 8.0 0.00 0.00 0.00 46 1010.8
20260508002603 54 307 4.0 8.0 0.00 0.00 0.00 46 1010.8
20260508002403 54 308 5.0 10.0 0.00 0.00 0.00 45 1010.8
20260508002203 54 310 5.0 12.0 0.00 0.00 0.00 46 1010.7
20260508002003 54 314 6.0 12.0 0.00 0.00 0.00 45 1010.7
20260508001803 54 317 7.0 12.0 0.00 0.00 0.00 45 1010.7
20260508001603 54 321 7.0 12.0 0.00 0.00 0.00 44 1010.8
20260508001403 54 325 7.0 12.0 0.00 0.00 0.00 43 1010.8
20260508001203 54 324 6.0 11.0 0.00 0.00 0.00 43 1010.8
20260508001003 54 323 5.0 11.0 0.00 0.00 0.00 42 1010.8
20260508000803 54 316 5.0 11.0 0.00 0.00 0.00 41 1010.8
20260508000603 55 311 5.0 10.0 0.00 0.00 0.00 41 1010.7
20260508000427 55 307 5.0 10.0 0.00 0.00 0.00 41 1010.7
20260508000226 55 307 5.0 10.0 0.00 0.00 0.00 41 1010.7
20260508000003 55 306 5.0 10.0 0.00 0.00 0.00 41 1010.8
20260507235803 55 307 5.0 10.0 0.00 0.00 0.00 40 1010.7
20260507235603 55 309 5.0 10.0 0.00 0.00 0.00 41 1010.7
20260507235403 55 309 5.0 10.0 0.00 0.00 0.00 40 1010.7
20260507235203 55 311 5.0 10.0 0.00 0.00 0.00 41 1010.7
20260507235003 55 312 5.0 12.0 0.00 0.00 0.00 41 1010.7
20260507234803 55 312 5.0 12.0 0.00 0.00 0.00 40 1010.7
20260507234603 55 314 5.0 12.0 0.00 0.00 0.00 41 1010.6
20260507234403 55 316 5.0 12.0 0.00 0.00 0.00 40 1010.7
20260507234203 55 318 5.0 12.0 0.00 0.00 0.00 40 1010.7
20260507234003 55 320 5.0 10.0 0.00 0.00 0.00 41 1010.8
20260507233803 55 322 5.0 10.0 0.00 0.00 0.00 40 1010.7
20260507233603 55 319 6.0 10.0 0.00 0.00 0.00 40 1010.7
20260507233403 55 318 6.0 13.0 0.00 0.00 0.00 40 1010.7
20260507233203 55 317 6.0 13.0 0.00 0.00 0.00 39 1010.7
20260507233024 56 317 6.0 13.0 0.00 0.00 0.00 39 1010.7
20260507232824 56 314 7.0 13.0 0.00 0.00 0.00 39 1010.7
20260507232603 55 309 8.0 13.0 0.00 0.00 0.00 38 1010.7
20260507232403 55 306 7.0 13.0 0.00 0.00 0.00 38 1010.7
20260507232203 55 303 7.0 13.0 0.00 0.00 0.00 40 1010.7
20260507232003 55 301 8.0 13.0 0.00 0.00 0.00 38 1010.6
20260507231803 55 301 7.0 13.0 0.00 0.00 0.00 40 1010.6
20260507231603 55 303 7.0 11.0 0.00 0.00 0.00 40 1010.6
20260507231403 55 304 7.0 11.0 0.00 0.00 0.00 40 1010.6
20260507231203 55 304 6.0 11.0 0.00 0.00 0.00 39 1010.6
20260507231003 55 303 6.0 10.0 0.00 0.00 0.00 39 1010.6
20260507230824 55 302 6.0 10.0 0.00 0.00 0.00 39 1010.6
20260507230603 55 302 6.0 10.0 0.00 0.00 0.00 39 1010.6
20260507230424 55 303 6.0 10.0 0.00 0.00 0.00 40 1010.6
20260507230203 55 305 5.0 11.0 0.00 0.00 0.00 38 1010.6
20260507230003 55 306 5.0 11.0 0.00 0.00 0.00 39 1010.7
20260507225803 55 307 5.0 11.0 0.00 0.00 0.00 37 1010.7
20260507225603 55 309 4.0 11.0 0.00 0.00 0.00 36 1010.7
20260507225403 55 308 4.0 10.0 0.00 0.00 0.00 38 1010.8
20260507225203 55 309 4.0 8.0 0.00 0.00 0.00 36 1010.8
20260507225003 55 311 4.0 8.0 0.00 0.00 0.00 38 1010.8
20260507224824 55 310 4.0 8.0 0.00 0.00 0.00 39 1010.8
20260507224624 55 313 4.0 8.0 0.00 0.00 0.00 39 1010.9
20260507224403 55 312 4.0 8.0 0.00 0.00 0.00 37 1010.9
20260507224203 55 311 4.0 8.0 0.00 0.00 0.00 37 1010.9
20260507224003 55 310 3.0 8.0 0.00 0.00 0.00 37 1010.9
20260507223803 55 310 3.0 7.0 0.00 0.00 0.00 38 1010.9
20260507223603 55 306 2.0 7.0 0.00 0.00 0.00 39 1010.8
20260507223403 55 307 2.0 5.0 0.00 0.00 0.00 36 1010.9
20260507223203 56 308 2.0 4.0 0.00 0.00 0.00 37 1010.8
20260507223003 56 304 3.0 5.0 0.00 0.00 0.00 37 1010.8
20260507222803 56 302 3.0 7.0 0.00 0.00 0.00 36 1010.9
20260507222603 56 303 4.0 7.0 0.00 0.00 0.00 38 1010.9
20260507222403 56 301 4.0 7.0 0.00 0.00 0.00 38 1010.9
20260507222224 56 299 4.0 7.0 0.00 0.00 0.00 37 1011.0
20260507222024 56 301 3.0 7.0 0.00 0.00 0.00 37 1010.9
20260507221803 56 301 2.0 5.0 0.00 0.00 0.00 36 1010.9
20260507221624 56 301 2.0 6.0 0.00 0.00 0.00 34 1011.0
20260507221403 56 305 3.0 11.0 0.00 0.00 0.00 35 1011.0
20260507221203 55 304 5.0 15.0 0.00 0.00 0.00 35 1011.1
20260507221003 55 302 6.0 17.0 0.00 0.00 0.00 34 1011.0
20260507220824 55 303 7.0 17.0 0.00 0.00 0.00 34 1011.1
20260507220624 55 302 9.0 17.0 0.00 0.00 0.00 36 1011.2
20260507220424 55 301 10.0 17.0 0.00 0.00 0.00 38 1011.4
20260507220203 55 303 9.0 17.0 0.00 0.00 0.00 38 1011.4
20260507220003 56 308 8.0 13.0 0.00 0.00 0.00 37 1011.4
20260507215803 56 310 7.0 13.0 0.00 0.00 0.00 37 1011.3
20260507215603 56 318 6.0 13.0 0.00 0.00 0.00 34 1011.2
20260507215403 56 327 5.0 13.0 0.00 0.00 0.00 32 1011.0
20260507215224 56 329 5.0 9.0 0.00 0.00 0.00 33 1011.0
20260507215003 56 322 4.0 9.0 0.00 0.00 0.00 32 1011.0
20260507214803 57 324 4.0 9.0 0.00 0.00 0.00 30 1010.9
20260507214603 57 315 5.0 9.0 0.00 0.00 0.00 29 1011.0
20260507214403 57 314 4.0 9.0 0.00 0.00 0.00 31 1011.0
20260507214203 57 324 4.0 8.0 0.00 0.00 0.00 31 1011.0
20260507214024 57 332 4.0 8.0 0.00 0.00 0.00 32 1011.0
20260507213803 56 340 4.0 7.0 0.00 0.00 0.00 30 1011.0
20260507213603 56 340 4.0 9.0 0.00 0.00 0.00 34 1011.0
20260507213403 56 335 5.0 9.0 0.00 0.00 0.00 34 1011.0
20260507213203 56 329 5.0 9.0 0.00 0.00 0.00 31 1011.1
20260507213003 56 334 5.0 9.0 0.00 0.00 0.00 31 1011.1
20260507212824 56 332 5.0 9.0 0.00 0.00 0.00 29 1011.1
20260507212603 56 345 5.0 9.0 0.00 0.00 0.00 30 1011.2
20260507212403 57 347 5.0 9.0 0.00 0.00 0.00 30 1011.2
20260507212203 57 346 5.0 13.0 0.00 0.00 0.00 31 1011.2
20260507212024 57 345 5.0 13.0 0.00 0.00 0.00 30 1011.3
20260507211803 58 347 4.0 13.0 0.00 0.00 0.00 30 1011.2
20260507211624 58 346 4.0 13.0 0.00 0.00 0.00 30 1011.3
20260507211403 58 353 3.0 13.0 0.00 0.00 0.00 30 1011.3
20260507211203 57 359 4.0 8.0 0.00 0.00 0.00 34 1011.3
20260507211003 57 358 5.0 11.0 0.00 0.00 0.00 30 1011.3
20260507210803 57 360 6.0 11.0 0.00 0.00 0.00 29 1011.3
20260507210603 57 1 6.0 11.0 0.00 0.00 0.00 30 1011.4
20260507210403 56 1 7.0 11.0 0.00 0.00 0.00 29 1011.5
20260507210203 57 7 7.0 11.0 0.00 0.00 0.00 32 1011.5
20260507210024 57 9 7.0 11.0 0.00 0.00 0.00 32 1011.5
20260507205803 57 2 6.0 11.0 0.00 0.00 0.00 30 1011.5
20260507205624 57 358 6.0 11.0 0.00 0.00 0.00 31 1011.5
20260507205403 58 350 7.0 18.0 0.00 0.00 0.00 33 1011.5
20260507205203 57 345 7.0 18.0 0.00 0.00 0.00 33 1011.5
20260507205003 57 346 7.0 18.0 0.00 0.00 0.00 31 1011.5
20260507204803 57 359 7.0 18.0 0.00 0.00 0.00 28 1011.6
20260507204603 57 13 6.0 18.0 0.00 0.00 0.00 29 1011.6
20260507204424 57 22 6.0 18.0 0.00 0.00 0.00 33 1011.5
20260507204203 57 27 6.0 13.0 0.00 0.00 0.00 30 1011.6
20260507204003 57 24 6.0 11.0 0.00 0.00 0.00 31 1011.5
20260507203803 57 15 6.0 11.0 0.00 0.00 0.00 34 1011.7
20260507203624 57 16 6.0 13.0 0.00 0.00 0.00 33 1011.8
20260507203424 57 14 7.0 13.0 0.00 0.00 0.00 33 1011.8
20260507203203 57 34 7.0 13.0 0.00 0.00 0.00 33 1011.8
20260507203024 57 34 7.0 13.0 0.00 0.00 0.00 31 1011.9
20260507202824 57 29 7.0 13.0 0.00 0.00 0.00 33 1011.9
20260507202603 57 23 7.0 12.0 0.00 0.00 0.00 33 1011.8
20260507202403 57 16 7.0 12.0 0.00 0.00 0.00 33 1011.8
20260507202203 57 4 7.0 12.0 0.00 0.00 0.00 32 1011.8
20260507202003 56 358 7.0 14.0 0.00 0.00 0.00 31 1011.8
20260507201803 56 360 7.0 14.0 0.00 0.00 0.00 35 1011.9
20260507201603 56 3 7.0 14.0 0.00 0.00 0.00 35 1011.9
20260507201424 56 8 7.0 15.0 0.00 0.00 0.00 34 1011.8
20260507201203 57 10 7.0 15.0 0.00 0.00 0.00 29 1011.9
20260507201003 57 14 7.0 15.0 0.00 0.00 0.00 35 1012.0
20260507200803 57 18 6.0 15.0 0.00 0.00 0.00 35 1012.0
20260507200603 57 10 7.0 15.0 0.00 0.00 0.00 33 1012.1
20260507200403 57 3 6.0 14.0 0.00 0.00 0.00 31 1012.0
20260507200203 57 350 6.0 13.0 0.00 0.00 0.00 34 1012.0
20260507200003 57 340 6.0 13.0 0.00 0.00 0.00 36 1012.0
20260507195803 56 341 7.0 13.0 0.00 0.00 0.00 30 1012.1
20260507195603 56 348 7.0 13.0 0.00 0.00 0.00 35 1012.1
20260507195403 56 346 7.0 14.0 0.00 0.00 0.00 33 1012.2
20260507195203 56 354 8.0 14.0 0.00 0.00 0.00 31 1012.2
20260507195003 56 5 8.0 14.0 0.00 0.00 0.00 32 1012.3
20260507194824 56 4 8.0 15.0 0.00 0.00 0.00 34 1012.4
20260507194624 56 4 8.0 15.0 0.00 0.00 0.00 32 1012.4
20260507194403 56 8 8.0 15.0 0.00 0.00 0.00 30 1012.3
20260507194203 56 11 7.0 15.0 0.00 0.00 0.00 34 1012.4
20260507194003 56 7 7.0 15.0 0.00 0.00 0.00 32 1012.4
20260507193804 56 15 6.0 16.0 0.00 0.00 0.00 33 1012.3
20260507193603 56 15 6.0 16.0 0.00 0.00 0.00 38 1012.4
20260507193403 56 7 6.0 16.0 0.00 0.00 0.00 34 1012.4
20260507193203 56 351 7.0 16.0 0.00 0.00 0.00 34 1012.4
20260507193003 56 339 7.0 16.0 0.00 0.00 0.00 34 1012.4
20260507192803 56 331 7.0 14.0 0.00 0.00 0.00 33 1012.5
20260507192603 56 335 7.0 14.0 0.00 0.00 0.00 32 1012.6
20260507192403 56 346 7.0 14.0 0.00 0.00 0.00 31 1012.6
20260507192224 56 356 7.0 14.0 0.00 0.00 0.00 31 1012.6
20260507192003 55 7 7.0 14.0 0.00 0.00 0.00 32 1012.6
20260507191824 56 5 7.0 15.0 0.00 0.00 0.00 33 1012.7
20260507191603 55 358 7.0 15.0 0.00 0.00 0.00 36 1012.7
20260507191403 55 353 7.0 15.0 0.00 0.00 0.00 36 1012.7
20260507191203 55 345 7.0 15.0 0.00 0.00 0.00 31 1012.7
20260507191003 55 336 7.0 15.0 0.00 0.00 0.00 32 1012.7
20260507190803 55 334 7.0 12.0 0.00 0.00 0.00 35 1012.7
20260507190603 55 333 7.0 12.0 0.00 0.00 0.00 34 1012.7
20260507190403 55 336 7.0 12.0 0.00 0.00 0.00 34 1012.7
20260507190203 55 345 7.0 12.0 0.00 0.00 0.00 34 1012.8
20260507190004 55 357 7.0 13.0 0.00 0.00 0.00 33 1012.9
20260507185803 55 2 8.0 13.0 0.00 0.00 0.00 34 1012.9
20260507185603 55 2 8.0 13.0 0.00 0.00 0.00 35 1013.0
20260507185403 55 358 7.0 13.0 0.00 0.00 0.00 37 1013.0
20260507185203 55 357 7.0 13.0 0.00 0.00 0.00 33 1013.0
20260507185003 55 356 6.0 12.0 0.00 0.00 0.00 35 1012.9
20260507184824 55 351 6.0 17.0 0.00 0.00 0.00 36 1013.0
20260507184603 55 353 6.0 17.0 0.00 0.00 0.00 35 1013.0
20260507184403 55 358 6.0 17.0 0.00 0.00 0.00 38 1013.0
20260507184203 54 358 7.0 17.0 0.00 0.00 0.00 36 1013.0
20260507184003 54 356 7.0 17.0 0.00 0.00 0.00 33 1013.1
20260507183803 54 1 6.0 11.0 0.00 0.00 0.00 34 1013.1
20260507183624 54 3 7.0 12.0 0.00 0.00 0.00 37 1013.2
20260507183403 54 18 7.0 14.0 0.00 0.00 0.00 38 1013.2
20260507183224 54 16 6.0 14.0 0.00 0.00 0.00 35 1013.2
20260507183003 54 34 7.0 14.0 0.00 0.00 0.00 36 1013.1
20260507182803 54 33 7.0 14.0 0.00 0.00 0.00 33 1013.1
20260507182603 54 29 7.0 14.0 0.00 0.00 0.00 35 1013.1
20260507182403 54 10 7.0 13.0 0.00 0.00 0.00 36 1013.2
20260507182203 54 13 6.0 13.0 0.00 0.00 0.00 35 1013.1
20260507182003 54 359 6.0 12.0 0.00 0.00 0.00 35 1013.1
20260507181803 55 357 5.0 11.0 0.00 0.00 0.00 38 1013.1
20260507181603 54 356 5.0 11.0 0.00 0.00 0.00 35 1013.2
20260507181403 54 6 5.0 10.0 0.00 0.00 0.00 38 1013.1
20260507181203 54 4 5.0 10.0 0.00 0.00 0.00 35 1013.1
20260507181003 54 12 5.0 10.0 0.00 0.00 0.00 37 1013.1
20260507180803 54 11 5.0 10.0 0.00 0.00 0.00 35 1013.1
20260507180603 54 3 5.0 10.0 0.00 0.00 0.00 35 1013.1
20260507180403 54 17 5.0 10.0 0.00 0.00 0.00 37 1013.1
20260507180203 54 36 4.0 9.0 0.00 0.00 0.00 36 1013.1
20260507180003 53 25 4.0 12.0 0.00 0.00 0.00 35 1013.1
20260507175803 53 28 4.0 12.0 0.00 0.00 0.00 33 1013.1
20260507175624 53 48 4.0 12.0 0.00 0.00 0.00 37 1013.2
20260507175403 53 60 5.0 13.0 0.00 0.00 0.00 38 1013.2
20260507175224 53 67 5.0 13.0 0.00 0.00 0.00 41 1013.2
20260507175003 52 76 6.0 13.0 0.00 0.00 0.00 35 1013.3
20260507174803 53 81 6.0 13.0 0.00 0.00 0.00 35 1013.4
20260507174624 53 82 6.0 13.0 0.00 0.00 0.00 38 1013.4
20260507174403 52 83 6.0 10.0 0.00 0.00 0.00 37 1013.3
20260507174203 52 82 6.0 12.0 0.00 0.00 0.00 38 1013.3
20260507174003 52 84 7.0 13.0 0.00 0.00 0.00 36 1013.4
20260507173803 52 78 7.0 13.0 0.00 0.00 0.00 35 1013.5
20260507173603 52 73 6.0 13.0 0.00 0.00 0.00 36 1013.5
20260507173403 52 77 6.0 13.0 0.00 0.00 0.00 37 1013.5
20260507173203 52 68 6.0 13.0 0.00 0.00 0.00 36 1013.5
20260507173003 52 62 6.0 13.0 0.00 0.00 0.00 37 1013.5
20260507172803 52 63 6.0 13.0 0.00 0.00 0.00 37 1013.7
20260507172603 52 68 6.0 14.0 0.00 0.00 0.00 34 1013.8
20260507172403 52 62 7.0 20.0 0.00 0.00 0.00 36 1013.8
20260507172203 52 71 7.0 20.0 0.00 0.00 0.00 38 1013.8
20260507172003 52 77 7.0 20.0 0.00 0.00 0.00 37 1013.8
20260507171803 52 78 7.0 20.0 0.00 0.00 0.00 38 1013.8
20260507171603 52 82 7.0 20.0 0.00 0.00 0.00 37 1013.9
20260507171403 52 85 7.0 14.0 0.00 0.00 0.00 36 1013.8
20260507171203 52 85 6.0 14.0 0.00 0.00 0.00 38 1013.9
20260507171003 52 85 6.0 13.0 0.00 0.00 0.00 37 1014.0
20260507170824 51 89 6.0 13.0 0.00 0.00 0.00 38 1014.0
20260507170603 52 71 7.0 14.0 0.00 0.00 0.00 36 1014.0
20260507170403 52 53 8.0 14.0 0.00 0.00 0.00 35 1014.0